Location: Napier
(39.4830°S, 176.9170°E)
Time: 06:11:26
(UTC+13:00)

Cosmos 1844 Rocket - Pass Details

Date: 24 January 2019
Orbit: 824 x 845 km, 71.0° (Epoch: 18 February)

Event Time Altitude Azimuth Distance (km) Brightness Sun altitude
Rises 22:53:15 0° 199° (SSW) 3,407 7.1 -21.5°
Reaches altitude 10° 22:55:47 10° 193° (SSW) 2,470 6.0 -21.8°
Maximum altitude 23:01:18 51° 117° (ESE) 1,052 3.1 -22.5°
Enters shadow 23:02:36 43° 76° (ENE) 1,175 3.1 -22.6°
